| time (UTC) | temp C | wind direction | speed KPH | gust KPH | rain 1hr cm | rain 24hr cm | rain mn cm | humidity % | barometer mb |
| 20260507045112 | 12 | 19 | 0.0 | 9.7 | 0.00 | 0.00 | 0.00 | ||
| 20260507043612 | 12 | 19 | 0.0 | 6.4 | 0.00 | 0.00 | 0.00 | ||
| 20260507042106 | 12 | 352 | 1.6 | 16.1 | 0.00 | 0.00 | 0.00 | ||
| 20260507041605 | 12 | 1 | 8.0 | 16.1 | 0.00 | 0.00 | 0.00 | ||
| 20260507041105 | 12 | 15 | 11.3 | 16.1 | 0.00 | 0.00 | 0.00 | ||
| 20260507034058 | 12 | 1 | 11.3 | 14.5 | 0.00 | 0.00 | 0.00 | ||
| 20260507033649 | 12 | 8 | 9.7 | 14.5 | 0.00 | 0.00 | 0.00 | ||
| 20260507033558 | 12 | 8 | 9.7 | 14.5 | 0.00 | 0.00 | 0.00 | ||
| 20260507033056 | 12 | 7 | 8.0 | 14.5 | 0.00 | 0.00 | 0.00 | ||
| 20260507032054 | 12 | 1 | 11.3 | 12.9 | 0.00 | 0.00 | 0.00 | ||
| 20260507031052 | 12 | 350 | 6.4 | 16.1 | 0.00 | 0.00 | 0.00 | ||
| 20260507025549 | 12 | 1 | 11.3 | 16.1 | 0.00 | 0.00 | 0.00 | ||
| 20260507025048 | 12 | 0 | 12.9 | 16.1 | 0.00 | 0.00 | 0.00 | ||
| 20260507024547 | 12 | 357 | 12.9 | 16.1 | 0.00 | 0.00 | 0.00 | ||
| 20260507024046 | 12 | 2 | 11.3 | 16.1 | 0.00 | 0.00 | 0.00 | ||
| 20260507023545 | 12 | 354 | 12.9 | 14.5 | 0.00 | 0.00 | 0.00 | ||
| 20260507023044 | 12 | 341 | 11.3 | 14.5 | 0.00 | 0.00 | 0.00 | ||
| 20260507020540 | 12 | 355 | 8.0 | 11.3 | 0.00 | 0.00 | 0.00 | ||
| 20260507015538 | 12 | 357 | 8.0 | 12.9 | 0.00 | 0.00 | 0.00 | ||
| 20260507015037 | 12 | 337 | 9.7 | 12.9 | 0.00 | 0.00 | 0.00 | ||
| 20260507014035 | 12 | 357 | 8.0 | 12.9 | 0.00 | 0.00 | 0.00 | ||
| 20260507013533 | 12 | 355 | 9.7 | 12.9 | 0.00 | 0.00 | 0.00 | ||
| 20260507013033 | 12 | 9 | 8.0 | 12.9 | 0.00 | 0.00 | 0.00 | ||
| 20260507011529 | 12 | 345 | 9.7 | 12.9 | 0.00 | 0.00 | 0.00 | ||
| 20260507010529 | 12 | 355 | 8.0 | 12.9 | 0.00 | 0.00 | 0.00 | ||
| 20260507010027 | 12 | 354 | 8.0 | 12.9 | 0.00 | 0.00 | 0.00 | ||
| 20260507002519 | 12 | 333 | 9.7 | 11.3 | 0.00 | 0.00 | 0.00 | ||
| 20260507002018 | 12 | 327 | 8.0 | 11.3 | 0.00 | 0.00 | 0.00 | ||
| 20260507000516 | 13 | 338 | 0.0 | 12.9 | 0.00 | 0.00 | 0.00 | ||
| 20260506233009 | 13 | 347 | 9.7 | 14.5 | 0.00 | 0.00 | 0.00 | ||
| 20260506231505 | 13 | 329 | 8.0 | 12.9 | 0.00 | 0.00 | 0.00 | ||
| 20260506231004 | 13 | 338 | 9.7 | 12.9 | 0.00 | 0.00 | 0.00 | ||
| 20260506230502 | 13 | 331 | 11.3 | 12.9 | 0.00 | 0.00 | 0.00 | ||
| 20260506230001 | 13 | 317 | 9.7 | 11.3 | 0.00 | 0.00 | 0.00 | ||
| 20260506224959 | 13 | 343 | 9.7 | 14.5 | 0.00 | 0.00 | 0.00 | ||
| 20260506223958 | 13 | 308 | 11.3 | 12.9 | 0.00 | 0.00 | 0.00 | ||
| 20260506223457 | 13 | 298 | 11.3 | 12.9 | 0.00 | 0.00 | 0.00 | ||
| 20260506222956 | 13 | 284 | 9.7 | 12.9 | 0.00 | 0.00 | 0.00 | ||
| 20260506221953 | 14 | 281 | 9.7 | 12.9 | 0.00 | 0.00 | 0.00 | ||
| 20260506221452 | 14 | 275 | 11.3 | 12.9 | 0.00 | 0.00 | 0.00 | ||
| 20260506220951 | 14 | 278 | 9.7 | 12.9 | 0.00 | 0.00 | 0.00 | ||
| 20260506215950 | 14 | 266 | 9.7 | 12.9 | 0.00 | 0.00 | 0.00 | ||
| 20260506214448 | 13 | 277 | 9.7 | 12.9 | 0.00 | 0.00 | 0.00 | ||
| 20260506213444 | 13 | 284 | 9.7 | 12.9 | 0.00 | 0.00 | 0.00 | ||
| 20260506212943 | 13 | 287 | 11.3 | 12.9 | 0.00 | 0.00 | 0.00 | ||
| 20260506212442 | 13 | 294 | 11.3 | 12.9 | 0.00 | 0.00 | 0.00 | ||
| 20260506211941 | 13 | 295 | 11.3 | 12.9 | 0.00 | 0.00 | 0.00 | ||
| 20260506210940 | 13 | 291 | 11.3 | 12.9 | 0.00 | 0.00 | 0.00 | ||
| 20260506205436 | 13 | 288 | 9.7 | 12.9 | 0.00 | 0.00 | 0.00 | ||
| 20260506202934 | 13 | 280 | 11.3 | 11.3 | 0.00 | 0.00 | 0.00 | ||
| 20260506201428 | 13 | 274 | 11.3 | 14.5 | 0.00 | 0.00 | 0.00 | ||
| 20260506200928 | 13 | 271 | 9.7 | 14.5 | 0.00 | 0.00 | 0.00 | ||
| 20260506200426 | 13 | 277 | 11.3 | 14.5 | 0.00 | 0.00 | 0.00 | ||
| 20260506195425 | 13 | 274 | 9.7 | 14.5 | 0.00 | 0.00 | 0.00 | ||
| 20260506194422 | 14 | 280 | 12.9 | 14.5 | 0.00 | 0.00 | 0.00 | ||
| 20260506193420 | 14 | 270 | 6.4 | 14.5 | 0.00 | 0.00 | 0.00 | ||
| 20260506192920 | 14 | 266 | 12.9 | 14.5 | 0.00 | 0.00 | 0.00 | ||
| 20260506192418 | 14 | 260 | 11.3 | 12.9 | 0.00 | 0.00 | 0.00 | ||
| 20260506191917 | 14 | 273 | 9.7 | 12.9 | 0.00 | 0.00 | 0.00 | ||
| 20260506191425 | 14 | 274 | 11.3 | 12.9 | 0.00 | 0.00 | 0.00 | ||
| 20260506191416 | 14 | 274 | 11.3 | 12.9 | 0.00 | 0.00 | 0.00 | ||
| 20260506190915 | 14 | 257 | 8.0 | 11.3 | 0.00 | 0.00 | 0.00 | ||
| 20260506185414 | 14 | 252 | 6.4 | 11.3 | 0.00 | 0.00 | 0.00 | ||
| 20260506184911 | 14 | 243 | 8.0 | 11.3 | 0.00 | 0.00 | 0.00 | ||
| 20260506184032 | 14 | 270 | 6.4 | 8.0 | 0.00 | 0.00 | 0.00 | ||
| 20260506183909 | 14 | 270 | 6.4 | 8.0 | 0.00 | 0.00 | 0.00 | ||
| 20260506182907 | 14 | 250 | 8.0 | 11.3 | 0.00 | 0.00 | 0.00 | ||
| 20260506181404 | 14 | 254 | 6.4 | 9.7 | 0.00 | 0.00 | 0.00 | ||
| 20260506180903 | 14 | 247 | 4.8 | 9.7 | 0.00 | 0.00 | 0.00 | ||
| 20260506180403 | 14 | 260 | 6.4 | 9.7 | 0.00 | 0.00 | 0.00 | ||
| 20260506175901 | 14 | 253 | 6.4 | 11.3 | 0.00 | 0.00 | 0.00 | ||
| 20260506175402 | 14 | 264 | 8.0 | 11.3 | 0.00 | 0.00 | 0.00 | ||
| 20260506174859 | 14 | 249 | 8.0 | 11.3 | 0.00 | 0.00 | 0.00 | ||
| 20260506174358 | 14 | 253 | 0.0 | 11.3 | 0.00 | 0.00 | 0.00 | ||
| 20260506173857 | 13 | 257 | 8.0 | 11.3 | 0.00 | 0.00 | 0.00 | ||
| 20260506173357 | 13 | 266 | 8.0 | 11.3 | 0.00 | 0.00 | 0.00 | ||
| 20260506172354 | 13 | 249 | 8.0 | 14.5 | 0.00 | 0.00 | 0.00 | ||
| 20260506171353 | 13 | 245 | 9.7 | 14.5 | 0.00 | 0.00 | 0.00 | ||
| 20260506170350 | 13 | 249 | 9.7 | 14.5 | 0.00 | 0.00 | 0.00 | ||
| 20260506165348 | 13 | 256 | 9.7 | 14.5 | 0.00 | 0.00 | 0.00 | ||
| 20260506164347 | 13 | 256 | 9.7 | 12.9 | 0.00 | 0.00 | 0.00 | ||
| 20260506163846 | 13 | 245 | 9.7 | 12.9 | 0.00 | 0.00 | 0.00 | ||
| 20260506163345 | 13 | 238 | 8.0 | 11.3 | 0.00 | 0.00 | 0.00 | ||
| 20260506162347 | 13 | 261 | 0.0 | 9.7 | 0.00 | 0.00 | 0.00 | ||
| 20260506160841 | 13 | 275 | 11.3 | 12.9 | 0.00 | 0.00 | 0.00 | ||
| 20260506155336 | 12 | 0 | 0.0 | 0.0 | 0.00 | 0.00 | 0.00 | ||
| 20260506154334 | 12 | 0 | 0.0 | 9.7 | 0.00 | 0.00 | 0.00 | ||
| 20260506153833 | 12 | 0 | 0.0 | 9.7 | 0.00 | 0.00 | 0.00 | ||
| 20260506152831 | 12 | 0 | 3.2 | 8.0 | 0.00 | 0.00 | 0.00 | ||
| 20260506151829 | 12 | 0 | 0.0 | 0.0 | 0.00 | 0.00 | 0.00 | ||
| 20260506151328 | 12 | 198 | 0.0 | 6.4 | 0.00 | 0.00 | 0.00 | ||
| 20260506150327 | 12 | 191 | 0.0 | 6.4 | 0.00 | 0.00 | 0.00 | ||
| 20260506145325 | 12 | 142 | 0.0 | 3.2 | 0.00 | 0.00 | 0.00 | ||
| 20260506144323 | 12 | 176 | 0.0 | 11.3 | 0.00 | 0.00 | 0.00 | ||
| 20260506142819 | 12 | 0 | 1.6 | 8.0 | 0.00 | 0.00 | 0.00 | ||
| 20260506142319 | 12 | 298 | 0.0 | 8.0 | 0.00 | 0.00 | 0.00 | ||
| 20260506141316 | 12 | 0 | 8.0 | 9.7 | 0.00 | 0.00 | 0.00 | ||
| 20260506135313 | 12 | 316 | 0.0 | 12.9 | 0.00 | 0.00 | 0.00 | ||
| 20260506134814 | 12 | 331 | 9.7 | 11.3 | 0.00 | 0.00 | 0.00 | ||
| 20260506132307 | 12 | 284 | 3.2 | 12.9 | 0.00 | 0.00 | 0.00 | ||
| 20260506131806 | 12 | 282 | 0.0 | 12.9 | 0.00 | 0.00 | 0.00 | ||
| 20260506130303 | 12 | 317 | 0.0 | 12.9 | 0.00 | 0.00 | 0.00 | ||
| 20260506125305 | 12 | 313 | 8.0 | 12.9 | 0.00 | 0.00 | 0.00 | ||
| 20260506124800 | 12 | 352 | 9.7 | 9.7 | 0.00 | 0.00 | 0.00 | ||
| 20260506122255 | 12 | 309 | 6.4 | 6.4 | 0.00 | 0.00 | 0.00 | ||
| 20260506121754 | 12 | 0 | 0.0 | 1.6 | 0.00 | 0.00 | 0.00 | ||
| 20260506121253 | 12 | 0 | 0.0 | 6.4 | 0.00 | 0.00 | 0.00 | ||
| 20260506114249 | 12 | 0 | 0.0 | 9.7 | 0.00 | 0.00 | 0.00 | ||
| 20260506113748 | 12 | 170 | 0.0 | 9.7 | 0.00 | 0.00 | 0.00 | ||
| 20260506112744 | 12 | 0 | 0.0 | 0.0 | 0.00 | 0.00 | 0.00 | ||
| 20260506111242 | 12 | 273 | 6.4 | 11.3 | 0.00 | 0.00 | 0.00 | ||
| 20260506110740 | 12 | 278 | 6.4 | 11.3 | 0.00 | 0.00 | 0.00 | ||
| 20260506105738 | 12 | 303 | 1.6 | 9.7 | 0.00 | 0.00 | 0.00 | ||
| 20260506105237 | 12 | 312 | 0.0 | 11.3 | 0.00 | 0.00 | 0.00 | ||
| 20260506104236 | 12 | 294 | 0.0 | 11.3 | 0.00 | 0.00 | 0.00 | ||
| 20260506103734 | 12 | 252 | 8.0 | 11.3 | 0.00 | 0.00 | 0.00 | ||
| 20260506102232 | 12 | 295 | 9.7 | 14.5 | 0.00 | 0.00 | 0.00 | ||
| 20260506101730 | 12 | 0 | 11.3 | 11.3 | 0.00 | 0.00 | 0.00 | ||
| 20260506095226 | 12 | 299 | 11.3 | 12.9 | 0.00 | 0.00 | 0.00 | ||
| 20260506093722 | 12 | 243 | 0.0 | 6.4 | 0.00 | 0.00 | 0.00 | ||
| 20260506093221 | 12 | 254 | 0.0 | 12.9 | 0.00 | 0.00 | 0.00 | ||
| 20260506092721 | 12 | 271 | 3.2 | 12.9 | 0.00 | 0.00 | 0.00 | ||
| 20260506091718 | 12 | 281 | 11.3 | 12.9 | 0.00 | 0.00 | 0.00 | ||
| 20260506091217 | 12 | 302 | 8.0 | 12.9 | 0.00 | 0.00 | 0.00 | ||
| 20260506090716 | 12 | 298 | 8.0 | 12.9 | 0.00 | 0.00 | 0.00 | ||
| 20260506085714 | 12 | 315 | 8.0 | 12.9 | 0.00 | 0.00 | 0.00 | ||
| 20260506085213 | 12 | 294 | 9.7 | 11.3 | 0.00 | 0.00 | 0.00 | ||
| 20260506083209 | 12 | 0 | 0.0 | 9.7 | 0.00 | 0.00 | 0.00 | ||
| 20260506082207 | 12 | 340 | 0.0 | 9.7 | 0.00 | 0.00 | 0.00 | ||
| 20260506081708 | 12 | 303 | 8.0 | 8.0 | 0.00 | 0.00 | 0.00 | ||
| 20260506081205 | 12 | 0 | 0.0 | 9.7 | 0.00 | 0.00 | 0.00 | ||
| 20260506080704 | 12 | 324 | 0.0 | 9.7 | 0.00 | 0.00 | 0.00 | ||
| 20260506080203 | 12 | 315 | 0.0 | 9.7 | 0.00 | 0.00 | 0.00 | ||
| 20260506072156 | 12 | 0 | 0.0 | 0.0 | 0.00 | 0.00 | 0.00 | ||
| 20260506071154 | 12 | 0 | 0.0 | 9.7 | 0.00 | 0.00 | 0.00 | ||
| 20260506070652 | 12 | 0 | 0.0 | 9.7 | 0.00 | 0.00 | 0.00 | ||
| 20260506061642 | 12 | 0 | 0.0 | 0.0 | 0.00 | 0.00 | 0.00 |